MDT,Max TemperatureF,Mean TemperatureF,Min TemperatureF,Max Dew PointF,MeanDew PointF,Min DewpointF,Max Humidity, Mean Humidity, Min Humidity, Max Sea Level PressureIn, Mean Sea Level PressureIn, Min Sea Level PressureIn, Max VisibilityMiles, Mean VisibilityMiles, Min VisibilityMiles, Max Wind SpeedMPH, Mean Wind SpeedMPH, Max Gust SpeedMPH,PrecipitationIn, CloudCover, Events, WindDirDegrees
2012-3-1,32,25,17,23,16,9,84,64,43,30.01,29.80,29.68,10,9,2,25,12,30,T,6,Snow,296
2012-3-2,30,23,15,18,15,12,92,70,47,30.15,30.01,29.91,10,6,1,26,11,33,0.03,8,Snow,278
2012-3-3,44,33,22,29,23,15,74,62,49,30.02,29.91,29.82,10,10,10,33,14,48,0.00,2,,268
2012-3-4,51,40,28,31,27,22,92,66,39,30.11,29.97,29.83,10,10,10,24,11,29,T,3,Rain,264
2012-3-5,51,44,36,29,26,24,59,49,39,29.82,29.62,29.41,10,10,10,37,18,44,0.00,0,,226
2012-3-6,42,28,14,32,23,12,100,80,59,30.06,29.62,29.37,10,6,0,23,12,33,0.16,7,Fog-Snow,292
2012-3-7,33,19,5,15,11,3,91,67,43,30.33,30.13,30.01,10,10,10,22,11,28,0.00,2,,266
2012-3-8,50,35,20,27,20,12,68,51,33,30.40,30.34,30.28,10,10,10,21,12,25,0.00,0,,243
2012-3-9,59,46,33,27,22,17,56,41,26,30.27,30.05,29.89,10,10,10,33,17,41,0.00,0,,239
2012-3-10,65,50,34,25,22,17,59,38,17,29.89,29.76,29.65,10,10,10,26,11,31,0.00,0,,209
2012-3-11,63,48,32,30,24,20,72,46,20,29.70,29.56,29.39,10,10,10,29,10,36,0.00,1,,201
2012-3-12,54,41,27,26,21,13,69,48,26,29.83,29.70,29.57,10,10,10,31,12,40,0.00,1,,245
2012-3-13,64,48,32,28,22,13,75,48,20,29.74,29.49,29.32,10,10,7,46,18,59,0.00,2,,228
2012-3-14,43,36,28,34,27,12,100,72,43,29.94,29.85,29.74,10,6,0,18,7,25,0.07,6,Fog-Snow,116
2012-3-15,63,50,37,33,31,28,76,54,32,29.93,29.81,29.65,10,10,10,32,12,39,0.00,0,,214
2012-3-16,58,46,33,37,33,28,89,65,40,29.72,29.61,29.49,10,10,5,28,8,38,0.06,5,Rain,253
2012-3-17,63,49,34,35,31,27,85,59,32,29.65,29.47,29.29,10,10,10,33,15,41,T,5,Rain,117
2012-3-18,51,41,30,35,31,28,100,73,46,29.48,29.39,29.29,10,7,0,24,11,29,0.01,4,Fog-Snow,306
2012-3-19,30,27,23,30,26,16,100,84,68,29.75,29.47,29.29,10,2,0,30,19,39,0.31,7,Fog-Snow,287
2012-3-20,38,26,14,26,18,6,73,64,54,29.83,29.78,29.66,10,9,2,40,23,52,T,2,,232
2012-3-21,45,35,25,32,27,22,85,72,58,29.95,29.89,29.76,10,10,10,30,8,35,0.00,0,,285
2012-3-22,65,48,31,35,29,26,85,55,24,29.94,29.84,29.75,10,10,10,24,9,32,0.00,1,,167
2012-3-23,47,38,29,32,29,26,100,77,53,30.15,29.99,29.86,10,8,0,26,7,37,T,5,Fog-Snow,300
2012-3-24,43,36,28,34,30,27,100,85,70,30.25,30.15,30.05,10,8,2,20,7,23,0.00,6,,86
2012-3-25,55,42,28,34,31,27,92,69,46,30.10,29.94,29.69,10,10,10,20,9,25,0.00,1,,108
2012-3-26,59,45,31,38,35,29,92,70,47,29.70,29.60,29.42,10,9,2,24,9,31,0.28,4,Rain,299
2012-3-27,56,45,34,36,26,18,100,62,24,29.92,29.85,29.71,10,10,9,15,11,18,0.00,1,,264
2012-3-28,64,48,31,35,28,23,70,48,25,29.86,29.77,29.67,10,10,10,32,11,43,T,3,Rain,205
2012-3-29,57,43,29,27,23,18,78,52,26,29.88,29.79,29.63,10,10,10,28,16,35,0.00,0,,228
2012-3-30,67,54,40,35,30,25,65,46,26,29.64,29.54,29.46,10,10,10,43,24,53,0.00,1,,239
2012-3-31,71,54,37,43,37,33,85,57,29,29.65,29.52,29.33,10,10,10,28,9,33,T,4,,149